Location: Beuvardes
(49.1419°N, 3.4893°E)
Time: 06:39:43
(UTC+00:00)

Daily predictions for brighter satellites

Satellite Brightness Start Highest point End
(mag) Time Altitude Azimuth Time Altitude Azimuth Time Altitude Azimuth
Cosmos 1190 Rocket 4.2 17:47:18 10° SSW 17:52:30 79° WNW 17:57:44 10° NNE
NOSS 3-1 (A) 4.4 17:48:30 10° NW 17:55:53 77° SW 18:04:39 10° SSE
Cosmos 2369 4.2 17:51:48 10° S 17:57:01 38° ESE 18:02:16 10° NE
CZ-4C R/B 4.3 17:57:37 10° N 18:01:53 58° WNW 18:05:59 10° SSW
CZ-4 R/B 4.5 17:58:47 10° SSE 18:02:54 88° WSW 18:07:03 10° NNW
CZ-4B DEB 4.4 17:58:26 10° SSE 18:03:53 78° WSW 18:09:24 10° NNW
SL-16 R/B 3.8 18:06:29 10° ESE 18:08:26 12° E 18:10:24 10° ENE
USA 186 3.7 18:07:02 10° E 18:08:58 15° ENE 18:10:56 10° NNE
USA 215 3.5 18:02:31 10° NE 18:09:04 74° NNW 18:15:35 10° WSW
Cosmos 1844 Rocket 4.3 18:09:50 10° N 18:13:45 19° NE 18:17:37 10° E
SL-4 R/B 2.4 18:09:22 10° WNW 18:13:45 68° N 18:18:03 12° E
Cosmos 1437 Rocket 4.5 18:12:18 10° ESE 18:14:01 13° E 18:15:43 10° ENE
Cosmos 1741 Rocket 4.4 18:10:05 10° S 18:14:59 40° ESE 18:19:54 10° NE
ARGOS Delta rocket 4.1 18:10:01 10° NNE 18:15:20 58° E 18:20:21 10° S
SKYMED 3 4.5 18:13:28 10° NNE 18:17:37 86° WNW 18:21:44 10° SSW
Timation 2 Rocket 4.1 18:11:13 10° NNW 18:17:43 62° NE 18:23:52 10° SE
BREEZE-M DEB (TANK) 4.3 18:16:52 10° SW 18:21:23 55° SE 18:38:57 10° ENE
Okean O Rocket 1.6 18:17:56 10° SSE 18:22:13 61° ENE 18:26:33 10° N
Cosmos 2219 4.3 18:19:00 10° NW 18:24:33 49° WSW 18:30:02 10° S
Nadezhda 4 Rocket 4.4 18:19:15 10° SSE 18:25:06 41° E 18:30:58 10° NNE
Cosmos 1814 Rocket 4.5 18:20:33 10° NNW 18:25:34 42° ENE 18:30:30 10° SE
Cosmos 1242 Rocket 2.4 18:24:22 10° S 18:27:55 80° ESE 18:31:30 10° NNE
Spot 1 4.0 18:24:26 10° NNE 18:28:44 89° E 18:32:52 10° SSW
BREEZE M DEB (TANK) 4.2 18:25:07 10° SSW 18:29:35 17° SSE 18:31:25 13° SE
Cosmos 1809 Rocket 4.4 18:24:07 10° S 18:30:05 62° E 18:36:06 10° NNE
SL-14 R/B 3.2 18:26:40 10° N 18:30:36 71° ENE 18:34:34 10° SSE
Cosmos 2263 Rocket 2.2 18:26:24 10° NNW 18:32:07 70° ENE 18:37:47 10° SE
Cosmos 1805 3.1 18:30:51 10° S 18:34:43 79° E 18:38:37 10° NNE
Cosmos 1674 Rocket 3.5 18:30:42 10° N 18:35:06 67° E 18:39:29 10° SSE
YAOGAN 1 2.6 18:31:44 10° SSE 18:36:04 83° WSW 18:40:25 10° NNW
Meteor 2-5 Rocket 4.3 18:31:55 10° N 18:37:00 35° ENE 18:41:16 14° SE
COBE Rocket 4.1 18:33:29 10° S 18:38:23 76° WSW 18:43:10 10° NNW
Cosmos 1726 2.1 18:34:51 10° S 18:38:24 52° E 18:41:58 10° NNE
OBJECT-B 1.1 18:38:57 27° E 18:39:25 30° ENE 18:41:45 10° N
H-2A R/B 4.0 18:39:28 16° ENE 18:39:56 16° ENE 18:42:20 10° NNE
Cosmos 2082 4.2 18:37:50 10° NNW 18:43:31 62° WSW 18:49:08 10° SSE
IRIDIUM 106 4.3 18:40:34 10° S 18:45:42 64° E 18:50:53 10° N
Cosmos 1766 3.3 18:44:51 10° S 18:48:40 55° E 18:52:32 10° NNE
IRS-1C Rocket 4.5 18:46:16 16° SE 18:50:11 42° ENE 18:55:07 10° N
Cosmos 1025 Rocket 4.1 18:47:03 10° NNE 18:50:36 24° ENE 18:51:17 23° E
Cosmos 1697 Rocket 3.5 18:47:18 10° SW 18:52:46 53° NW 18:58:18 10° NNE
CSL-04 Debris 4.2 18:50:27 10° SSE 18:55:45 60° ENE 19:01:05 10° N
Cosmos 2221 Rocket 4.3 18:53:06 10° NNW 18:57:32 56° W 19:01:58 10° S
Cosmos 1975 Rocket 3.9 18:56:00 10° N 18:59:59 31° ENE 19:00:51 29° E
Landsat 7 4.3 19:00:02 26° ESE 19:02:04 40° ENE 19:06:29 10° N
IGS 5A 3.6 18:59:49 24° SE 19:02:05 53° ENE 19:06:08 10° N
Cosmos 1092 Rocket 4.3 18:56:11 10° SSE 19:02:06 45° E 19:08:01 10° NNE
Cosmos 1378 Rocket 4.0 18:59:55 10° NNW 19:04:17 64° W 19:08:34 10° S
Resurs 01 Rocket 2.8 19:05:25 24° ENE 19:05:37 24° ENE 19:09:12 10° N
Cosmos 968 Rocket 3.8 19:04:56 10° S 19:09:52 43° ESE 19:14:48 10° NE
ATLAS 2AS CENTAUR R/B 4.5 19:08:55 10° WNW 19:15:02 26° N 19:20:54 10° NE
Cosmos 1470 3.1 19:15:56 43° ENE 19:15:56 43° ENE 19:19:13 10° NNE
ISS -2.8 19:19:10 10° WNW 19:22:19 38° SSW 19:22:45 36° SSW
Cosmos 2084 4.3 19:19:00 10° WSW 19:22:39 43° NW 19:25:48 13° NNE
Cosmos 2322 Rocket 3.9 19:19:14 10° SSE 19:27:51 17° NE 19:29:21 10° NE
Ariane Rocket 4.1 19:25:15 27° ENE 19:25:15 27° ENE 19:29:27 10° N
CSL-04 Rocket 3.6 19:21:40 17° SSE 19:25:50 90° ESE 19:31:16 10° NNW
Okean-O 2.5 19:24:10 30° SSE 19:26:23 87° ENE 19:30:51 10° NNW
Terra 4.1 19:28:16 10° NE 19:28:16 10° NE 19:28:19 10° NE
Resurs 1-3 3.5 19:26:17 43° SE 19:27:39 72° ENE 19:32:02 10° N
CZ-4 R/B 3.1 19:24:04 10° SSW 19:27:51 34° W 19:31:41 10° NNW
Gbstr 26 Del rocket 4.4 19:21:49 10° SW 19:29:30 73° SSE 19:34:41 25° ENE
SJ-6B 2.9 19:30:23 35° S 19:31:50 68° W 19:35:36 10° NNW
Cosmos 1570 Rocket 4.0 19:27:04 10° NNW 19:32:23 86° WSW 19:34:49 33° SSE
Cosmos 1980 Rocket 3.0 19:27:33 10° SW 19:33:02 51° NW 19:38:32 10° NNE
Cosmos 1627 Rocket 4.3 19:32:04 10° S 19:38:09 71° E 19:44:15 10° NNE
JB-3 4.2 19:34:07 10° NNE 19:38:13 79° ESE 19:38:37 69° SSE
USA 186 3.0 19:40:04 34° SW 19:40:56 42° W 19:44:08 10° NNW
deb Chang Zheng 4 3.3 19:41:18 70° ENE 19:41:18 70° ENE 19:45:20 10° N
Cosmos 1428 Rocket 4.4 19:39:23 10° S 19:45:34 87° E 19:51:51 10° N
Cosmos 2195 Rocket 4.4 19:39:30 10° S 19:45:43 89° W 19:52:04 10° N
Cosmos 2278 4.0 19:42:38 10° SW 19:48:17 66° WNW 19:53:58 10° NNE
Meteor 1-24 Rocket 3.6 19:43:38 10° NNW 19:48:57 76° W 19:51:25 33° S
Cosmos 1437 Rocket 3.3 19:45:59 10° SSW 19:49:41 55° WNW 19:53:22 10° N
SL-16 R/B 2.0 19:45:51 10° SSW 19:51:28 71° ESE 19:57:09 10° NNE
USA 215 4.0 19:47:18 20° NE 19:51:40 47° N 19:57:50 10° WNW
SL-4 R/B 2.5 19:48:51 10° WNW 19:53:20 59° SSW 19:53:27 59° SSW
Cosmos 2208 Rocket 4.2 19:50:23 10° NNW 19:55:44 71° WSW 19:57:21 45° S
Cosmos 1844 Rocket 2.6 19:52:59 10° NNW 19:58:42 72° ENE 19:59:17 66° ESE
Okean O Rocket 4.4 19:56:13 10° SW 19:58:58 16° W 20:01:45 10° NW
Meteor 1-22 Rocket 4.3 19:55:38 10° SSW 20:01:00 72° WNW 20:06:36 10° N
USA 81 4.2 19:56:27 10° N 20:01:43 69° W 20:03:45 37° SSW
Cosmos 2278 Rocket 3.9 19:58:56 10° N 20:02:49 18° NE 20:03:03 18° NE
Cosmos 2026 Rocket 3.9 19:57:10 10° SSW 20:03:13 79° W 20:09:20 10° N
Cosmos 1782 Rocket 4.1 20:06:54 42° SW 20:08:02 56° WNW 20:12:21 10° N
Cosmos 1553 Rocket 3.9 20:02:06 10° N 20:08:28 81° E 20:09:43 60° SSE
MOS 1 4.1 20:08:42 70° SSE 20:09:23 87° E 20:15:06 10° NNW
OBJECT-B 3.8 20:09:48 10° W 20:09:48 10° W 20:10:09 10° W
H-2A R/B 3.4 20:15:56 43° NW 20:15:56 43° NW 20:18:49 10° NNW
Cosmos 2263 Rocket 4.3 20:11:13 10° NW 20:15:29 22° W 20:19:44 10° SSW
USA 281 3.7 20:16:22 42° ENE 20:16:38 42° NE 20:22:45 10° NNW
Cosmos 1844 3.6 20:14:42 10° NNW 20:20:06 83° N 20:20:06 83° N
Cosmos 1025 Rocket 4.3 20:24:20 10° NNW 20:28:10 37° W 20:28:10 37° W
MetOp-B 4.4 20:31:47 62° N 20:31:47 62° N 20:36:15 10° NNW
SPOT 1/Viking Rocket 3.9 20:32:06 62° W 20:32:06 62° W 20:37:01 10° NNW
SPOT 3 Rocket 4.4 20:37:48 42° N 20:37:48 42° N 20:41:15 10° N
Cosmos 2360 Rocket 4.4 20:46:44 13° NNE 20:46:44 13° NNE 20:47:23 10° NNE
Resurs 01 Rocket 3.0 20:42:59 36° WNW 20:42:59 36° WNW 20:46:08 10° NNW
Ariane Rocket 4.3 21:05:26 38° NW 21:05:26 38° NW 21:08:55 10° NNW
Terra 3.9 21:07:10 22° N 21:07:10 22° N 21:08:52 10° N
Cosmos 2322 Rocket 3.3 21:09:30 41° NNW 21:09:30 41° NNW 21:13:42 10° NNE
ATLAS 2AS CENTAUR R/B 3.9 21:01:46 10° NW 21:08:13 32° NNE 21:09:00 31° NNE
NOSS 3-4 (A) 4.1 21:12:51 10° NW 21:18:30 62° NNW 21:18:30 62° NNW
NOSS 3-4 (C) 4.1 21:12:58 10° NW 21:18:36 62° NNW 21:18:36 62° NNW
USA 215 3.9 21:34:39 49° N 21:34:39 49° N 21:40:19 10° WNW
SL-16 R/B 4.1 21:31:24 10° W 21:36:08 26° NW 21:40:54 10° NNE
Cosmos 2278 Rocket 3.9 21:42:16 10° NNW 21:44:53 28° NNW 21:44:53 28° NNW
Cosmos 1943 Rocket 4.3 21:52:58 10° NNW 21:54:57 20° N 21:54:57 20° N
USA 281 4.4 22:03:15 37° WNW 22:03:15 37° WNW 22:07:26 10° NW
Cosmos 2360 Rocket 4.5 22:28:28 19° NNW 22:28:28 19° NNW 22:30:54 10° N
ATLAS 2AS CENTAUR R/B 4.3 22:53:04 10° NW 22:56:24 30° NW 22:56:24 30° NW
